Simultaneous Nadir Overpasses (SNOs) Predictions

Prediction of SNOs between AQUA and TERRA Satellite Orbit:

Table of predicted SNOs for the next 14.0 days since TLE Epoch: 5/25/2024
Index Date (AQUA) Time (AQUA) Lat,Lon (AQUA) SZA (AQUA ) Date (TERRA) Time (TERRA) Lat,Lon (TERRA) SZA (TERRA ) Distance(km) Time Diff (sec)
1 05/25/2024 05:40:01 -75.17, -86.16 125.96 05/25/2024 05:41:01 -75.16, -86.10 125.97 2.18 60
2 05/25/2024 06:29:24 75.16, 81.53 54.03 05/25/2024 06:30:21 75.15, 81.55 54.02 0.93 57
3 05/25/2024 07:18:45 -75.17,-110.82 125.98 05/25/2024 07:19:43 -75.18,-110.74 125.97 2.73 58
4 05/25/2024 08:08:08 75.15, 56.86 54.01 05/25/2024 08:09:03 75.17, 56.91 54.02 2.27 55
5 05/25/2024 08:57:29 -75.16,-135.49 126.00 05/25/2024 08:58:26 -75.14,-135.51 126.02 2.28 57
6 05/25/2024 09:46:52 75.15, 32.20 53.99 05/25/2024 09:47:46 75.13, 32.14 53.98 2.29 54
7 05/25/2024 10:36:13 -75.15,-160.15 126.01 05/25/2024 10:37:08 -75.15,-160.15 126.01 0.19 55
8 05/25/2024 11:25:35 75.14, 7.53 53.97 05/25/2024 11:26:27 75.15, 7.50 53.98 1.14 52
9 05/25/2024 12:14:56 -75.15, 175.18 126.03 05/25/2024 12:15:49 -75.17, 175.21 126.01 2.57 53
10 05/25/2024 13:04:19 75.13, -17.13 53.95 05/25/2024 13:05:09 75.16, -17.14 53.98 2.96 50
11 05/25/2024 13:53:40 -75.14, 150.52 126.05 05/25/2024 13:54:32 -75.13, 150.44 126.06 2.36 52
12 05/25/2024 14:43:03 75.13, -41.80 53.93 05/25/2024 14:43:52 75.12, -41.91 53.93 3.31 49
13 05/25/2024 15:32:24 -75.13, 125.85 126.07 05/25/2024 15:33:14 -75.15, 125.80 126.06 2.00 50
14 05/25/2024 16:21:47 75.12, -66.46 53.92 05/25/2024 16:22:34 75.14, -66.55 53.93 3.15 47
15 05/25/2024 17:11:09 -75.18, 101.05 126.04 05/25/2024 17:11:56 -75.16, 101.16 126.06 3.68 47
16 05/25/2024 18:00:32 75.17, -91.27 53.95 05/25/2024 18:01:16 75.15, -91.19 53.94 2.54 44
17 05/25/2024 18:49:52 -75.12, 76.52 126.11 05/25/2024 18:50:39 -75.12, 76.39 126.10 3.78 47
18 05/25/2024 19:39:16 75.16,-115.93 53.93 05/25/2024 19:39:58 75.17,-115.83 53.94 2.87 42
19 05/25/2024 20:28:37 -75.16, 51.72 126.07 05/25/2024 20:29:21 -75.14, 51.75 126.10 3.11 44
20 05/25/2024 21:18:00 75.15,-140.60 53.91 05/25/2024 21:18:41 75.13,-140.61 53.89 2.69 41
21 05/25/2024 22:07:21 -75.16, 27.05 126.09 05/25/2024 22:08:03 -75.15, 27.11 126.10 1.73 42
22 05/25/2024 22:56:44 75.15,-165.26 53.90 05/25/2024 22:57:23 75.14,-165.25 53.89 0.62 39
23 05/25/2024 23:46:05 -75.15, 2.39 126.11 05/25/2024 23:46:45 -75.17, 2.47 126.10 2.75 40
24 05/26/2024 00:35:28 75.14, 170.07 53.88 05/26/2024 00:36:05 75.16, 170.11 53.89 2.11 37
25 05/26/2024 01:24:49 -75.15, -22.28 126.13 05/26/2024 01:25:28 -75.13, -22.30 126.15 2.02 39
26 05/26/2024 02:14:12 75.14, 145.40 53.86 05/26/2024 02:14:48 75.12, 145.34 53.84 2.54 36
27 05/26/2024 03:03:33 -75.14, -46.95 126.15 05/26/2024 03:04:10 -75.14, -46.95 126.14 0.34 37
28 05/26/2024 03:52:56 75.13, 120.74 53.84 05/26/2024 03:53:30 75.13, 120.70 53.85 1.28 34
29 05/26/2024 04:42:17 -75.13, -71.61 126.16 05/26/2024 04:42:52 -75.16, -71.59 126.14 2.66 35
30 05/26/2024 05:31:40 75.12, 96.07 53.82 05/26/2024 05:32:12 75.15, 96.06 53.85 2.73 32
31 05/26/2024 06:21:01 -75.13, -96.28 126.18 05/26/2024 06:21:35 -75.12, -96.36 126.19 2.45 34
32 05/26/2024 07:10:24 75.12, 71.41 53.81 05/26/2024 07:10:55 75.11, 71.28 53.80 3.58 31
33 05/26/2024 07:59:45 -75.12,-120.94 126.20 05/26/2024 08:00:17 -75.13,-121.00 126.19 2.04 32
34 05/26/2024 08:49:08 75.11, 46.74 53.79 05/26/2024 08:49:37 75.12, 46.64 53.80 3.08 29
35 05/26/2024 09:38:29 -75.12,-145.61 126.22 05/26/2024 09:38:59 -75.15,-145.64 126.18 3.61 30
36 05/26/2024 10:27:53 75.16, 21.93 53.82 05/26/2024 10:28:19 75.14, 22.00 53.80 2.77 26
37 05/26/2024 11:17:14 -75.16,-170.41 126.18 05/26/2024 11:17:41 -75.16,-170.28 126.18 3.82 27
38 05/26/2024 12:06:37 75.15, -2.73 53.81 05/26/2024 12:07:01 75.15, -2.64 53.81 2.62 24
39 05/26/2024 12:55:58 -75.16, 164.92 126.20 05/26/2024 12:56:24 -75.13, 164.95 126.23 3.41 26
40 05/26/2024 13:45:21 75.15, -27.40 53.79 05/26/2024 13:45:44 75.11, -27.41 53.76 3.43 23
41 05/26/2024 14:34:42 -75.15, 140.25 126.22 05/26/2024 14:35:06 -75.14, 140.31 126.23 1.93 24
42 05/26/2024 15:24:05 75.14, -52.07 53.77 05/26/2024 15:24:26 75.13, -52.06 53.76 1.31 21
43 05/26/2024 16:13:26 -75.14, 115.58 126.23 05/26/2024 16:13:48 -75.15, 115.66 126.23 2.50 22
44 05/26/2024 17:02:49 75.13, -76.74 53.75 05/26/2024 17:03:08 75.14, -76.70 53.76 1.37 19
45 05/26/2024 17:52:10 -75.14, 90.92 126.25 05/26/2024 17:52:31 -75.12, 90.89 126.27 2.59 21
46 05/26/2024 18:41:33 75.13,-101.40 53.74 05/26/2024 18:41:51 75.10,-101.47 53.71 3.34 18
47 05/26/2024 19:30:54 -75.13, 66.25 126.27 05/26/2024 19:31:13 -75.13, 66.25 126.27 0.36 19
48 05/26/2024 20:20:17 75.12,-126.07 53.72 05/26/2024 20:20:33 75.12,-126.11 53.72 1.35 16
49 05/26/2024 21:09:38 -75.13, 41.58 126.28 05/26/2024 21:09:55 -75.14, 41.61 126.27 1.94 17
50 05/26/2024 21:59:01 75.12,-150.74 53.70 05/26/2024 21:59:15 75.13,-150.76 53.72 1.57 14
51 05/26/2024 22:48:22 -75.12, 16.91 126.30 05/26/2024 22:48:38 -75.11, 16.84 126.32 2.82 16
52 05/26/2024 23:37:45 75.11,-175.41 53.69 05/26/2024 23:37:57 75.15,-175.40 53.72 3.60 12
53 05/27/2024 00:27:06 -75.12, -7.75 126.32 05/27/2024 00:27:20 -75.12, -7.81 126.32 1.50 14
54 05/27/2024 01:16:29 75.11, 159.92 53.67 05/27/2024 01:16:40 75.11, 159.83 53.67 2.74 11
55 05/27/2024 02:05:50 -75.11, -32.42 126.33 05/27/2024 02:06:02 -75.13, -32.45 126.31 2.55 12
56 05/27/2024 02:55:13 75.10, 135.26 53.65 05/27/2024 02:55:22 75.12, 135.19 53.67 2.87 9
57 05/27/2024 03:44:34 -75.11, -57.09 126.35 05/27/2024 03:44:45 -75.10, -57.22 126.36 3.85 11
58 05/27/2024 04:33:58 75.15, 110.45 53.69 05/27/2024 04:34:04 75.13, 110.54 53.68 3.04 6
59 05/27/2024 05:23:18 -75.10, -81.76 126.37 05/27/2024 05:23:27 -75.11, -81.86 126.36 3.09 9
60 05/27/2024 06:12:42 75.14, 85.78 53.67 05/27/2024 06:12:46 75.15, 85.90 53.68 3.49 4
61 05/27/2024 07:02:03 -75.15,-106.56 126.33 05/27/2024 07:02:09 -75.12,-106.50 126.36 3.03 6
62 05/27/2024 07:51:26 75.14, 61.11 53.66 05/27/2024 07:51:29 75.11, 61.13 53.63 3.05 3
63 05/27/2024 08:40:47 -75.14,-131.23 126.35 05/27/2024 08:40:51 -75.14,-131.15 126.35 2.53 4
64 05/27/2024 09:30:10 75.13, 36.44 53.64 05/27/2024 09:30:11 75.12, 36.49 53.63 1.54 1
65 05/27/2024 10:19:31 -75.14,-155.90 126.37 05/27/2024 10:19:33 -75.15,-155.79 126.35 3.64 2
66 05/27/2024 11:08:54 75.13, 11.78 53.62 05/27/2024 11:08:53 75.14, 11.84 53.63 2.20 1
67 05/27/2024 11:58:15 -75.13, 179.43 126.38 05/27/2024 11:58:16 -75.11, 179.44 126.40 2.00 1
68 05/27/2024 12:47:38 75.12, -12.89 53.61 05/27/2024 12:47:36 75.10, -12.93 53.58 2.83 2
69 05/27/2024 13:36:59 -75.13, 154.76 126.40 05/27/2024 13:36:58 -75.13, 154.80 126.40 1.05 1
70 05/27/2024 14:26:21 75.12, -37.56 53.59 05/27/2024 14:26:17 75.11, -37.57 53.59 0.69 4
71 05/27/2024 15:15:42 -75.12, 130.09 126.41 05/27/2024 15:15:39 -75.14, 130.15 126.40 2.76 3
72 05/27/2024 16:05:05 75.11, -62.23 53.58 05/27/2024 16:04:59 75.13, -62.22 53.59 1.45 6
73 05/27/2024 16:54:26 -75.12, 105.42 126.43 05/27/2024 16:54:22 -75.10, 105.38 126.44 1.93 4
74 05/27/2024 17:43:49 75.11, -86.90 53.56 05/27/2024 17:43:42 75.09, -86.99 53.54 3.42 7
75 05/27/2024 18:33:10 -75.11, 80.75 126.45 05/27/2024 18:33:04 -75.12, 80.74 126.44 0.60 6
76 05/27/2024 19:22:33 75.10,-111.57 53.55 05/27/2024 19:22:24 75.10,-111.63 53.54 1.78 9
77 05/27/2024 20:11:54 -75.11, 56.08 126.46 05/27/2024 20:11:46 -75.13, 56.10 126.44 2.49 8
78 05/27/2024 21:01:17 75.10,-136.24 53.53 05/27/2024 21:01:06 75.12,-136.28 53.54 1.90 11
79 05/27/2024 21:50:38 -75.10, 31.41 126.48 05/27/2024 21:50:29 -75.09, 31.32 126.49 2.83 9
80 05/27/2024 22:40:01 75.10,-160.91 53.51 05/27/2024 22:39:48 75.13,-160.92 53.55 3.59 13
81 05/27/2024 23:29:22 -75.10, 6.74 126.49 05/27/2024 23:29:11 -75.11, 6.68 126.49 1.95 11
82 05/28/2024 00:18:45 75.09, 174.42 53.50 05/28/2024 00:18:31 75.09, 174.31 53.50 3.18 14
83 05/28/2024 01:08:06 -75.09, -17.93 126.51 05/28/2024 01:07:53 -75.12, -17.96 126.48 2.93 13
84 05/28/2024 01:57:29 75.09, 149.75 53.48 05/28/2024 01:57:13 75.10, 149.66 53.50 3.00 16
85 05/28/2024 02:46:51 -75.14, -42.74 126.47 05/28/2024 02:46:35 -75.13, -42.61 126.48 3.77 16
86 05/28/2024 03:36:14 75.13, 124.94 53.52 05/28/2024 03:35:55 75.12, 125.02 53.50 2.94 19
87 05/28/2024 04:25:34 -75.09, -67.27 126.54 05/28/2024 04:25:18 -75.09, -67.38 126.53 3.33 16
88 05/28/2024 05:14:58 75.13, 100.27 53.50 05/28/2024 05:14:37 75.13, 100.38 53.50 3.07 21
89 05/28/2024 06:04:19 -75.13, -92.08 126.50 05/28/2024 06:04:00 -75.11, -92.02 126.53 2.99 19
90 05/28/2024 06:53:42 75.12, 75.60 53.49 05/28/2024 06:53:20 75.09, 75.60 53.46 3.68 22
91 05/28/2024 07:43:03 -75.13,-116.75 126.52 05/28/2024 07:42:42 -75.12,-116.67 126.52 2.39 21
92 05/28/2024 08:32:26 75.12, 50.93 53.47 05/28/2024 08:32:02 75.10, 50.96 53.46 1.98 24
93 05/28/2024 09:21:47 -75.12,-141.42 126.53 05/28/2024 09:21:24 -75.13,-141.31 126.52 3.34 23
94 05/28/2024 10:11:10 75.12, 26.25 53.46 05/28/2024 10:10:44 75.12, 26.31 53.46 1.68 26
95 05/28/2024 11:00:31 -75.12,-166.09 126.55 05/28/2024 11:00:07 -75.10,-166.08 126.57 2.47 24
96 05/28/2024 11:49:54 75.11, 1.58 53.44 05/28/2024 11:49:26 75.13, 1.67 53.46 3.17 28
97 05/28/2024 12:39:15 -75.11, 169.24 126.56 05/28/2024 12:38:49 -75.11, 169.27 126.57 1.09 26
98 05/28/2024 13:28:38 75.11, -23.09 53.43 05/28/2024 13:28:09 75.09, -23.11 53.41 1.87 29
99 05/28/2024 14:17:59 -75.11, 144.57 126.58 05/28/2024 14:17:31 -75.12, 144.63 126.57 2.19 28
100 05/28/2024 15:07:22 75.10, -47.76 53.41 05/28/2024 15:06:51 75.11, -47.75 53.42 0.30 31
101 05/28/2024 15:56:43 -75.11, 119.90 126.59 05/28/2024 15:56:14 -75.08, 119.85 126.61 2.71 29
102 05/28/2024 16:46:06 75.10, -72.43 53.40 05/28/2024 16:45:33 75.12, -72.39 53.42 2.21 33
103 05/28/2024 17:35:27 -75.10, 95.23 126.61 05/28/2024 17:34:56 -75.10, 95.21 126.61 0.68 31
104 05/28/2024 18:24:50 75.10, -97.10 53.39 05/28/2024 18:24:16 75.08, -97.17 53.37 2.67 34
105 05/28/2024 19:14:11 -75.10, 70.55 126.62 05/28/2024 19:13:38 -75.11, 70.57 126.61 1.38 33
106 05/28/2024 20:03:34 75.09,-121.78 53.37 05/28/2024 20:02:58 75.09,-121.81 53.37 1.07 36
107 05/28/2024 20:52:55 -75.10, 45.88 126.64 05/28/2024 20:52:20 -75.12, 45.92 126.61 3.40 35
108 05/28/2024 21:42:18 75.09,-146.45 53.36 05/28/2024 21:41:40 75.11,-146.46 53.37 1.78 38
109 05/28/2024 22:31:39 -75.09, 21.21 126.65 05/28/2024 22:31:03 -75.09, 21.15 126.66 1.83 36
110 05/28/2024 23:21:02 75.09,-171.12 53.34 05/28/2024 23:20:22 75.12,-171.10 53.38 3.62 40
111 05/29/2024 00:10:23 -75.09, -3.46 126.66 05/29/2024 00:09:45 -75.10, -3.49 126.65 1.53 38
112 05/29/2024 00:59:46 75.08, 164.21 53.33 05/29/2024 00:59:05 75.08, 164.12 53.33 2.43 41
113 05/29/2024 01:49:07 -75.08, -28.14 126.68 05/29/2024 01:48:27 -75.11, -28.14 126.65 3.06 40
114 05/29/2024 02:38:30 75.08, 139.53 53.31 05/29/2024 02:37:47 75.09, 139.48 53.33 2.20 43
115 05/29/2024 03:27:51 -75.08, -52.81 126.69 05/29/2024 03:27:10 -75.07, -52.91 126.70 3.13 41
116 05/29/2024 04:17:14 75.08, 114.86 53.30 05/29/2024 04:16:29 75.10, 114.83 53.33 3.40 45
117 05/29/2024 05:06:35 -75.08, -77.48 126.71 05/29/2024 05:05:52 -75.09, -77.56 126.70 2.45 43
118 05/29/2024 05:55:58 75.07, 90.19 53.29 05/29/2024 05:55:12 75.07, 90.06 53.28 3.78 46
119 05/29/2024 06:45:19 -75.07,-102.15 126.72 05/29/2024 06:44:34 -75.10,-102.20 126.69 3.17 45
120 05/29/2024 07:34:42 75.07, 65.52 53.27 05/29/2024 07:33:54 75.08, 65.41 53.28 3.15 48
121 05/29/2024 08:24:04 -75.12,-126.96 126.68 05/29/2024 08:23:16 -75.11,-126.85 126.69 3.43 48
122 05/29/2024 09:13:27 75.12, 40.71 53.31 05/29/2024 09:12:36 75.09, 40.77 53.29 3.18 51
123 05/29/2024 10:02:47 -75.07,-151.50 126.75 05/29/2024 10:01:59 -75.07,-151.62 126.74 3.58 48
124 05/29/2024 10:52:11 75.11, 16.03 53.30 05/29/2024 10:51:18 75.10, 16.12 53.29 2.76 53
125 05/29/2024 11:41:32 -75.11,-176.31 126.71 05/29/2024 11:40:41 -75.09,-176.27 126.74 3.23 51
126 05/29/2024 12:30:55 75.11, -8.64 53.28 05/29/2024 12:30:00 75.12, -8.52 53.29 3.55 55
127 05/29/2024 13:20:16 -75.11, 159.02 126.72 05/29/2024 13:19:23 -75.10, 159.09 126.74 2.38 53
128 05/29/2024 14:09:39 75.11, -33.31 53.27 05/29/2024 14:08:43 75.08, -33.30 53.24 3.11 56
129 05/29/2024 14:59:00 -75.11, 134.35 126.74 05/29/2024 14:58:05 -75.11, 134.45 126.73 2.92 55
130 05/29/2024 15:48:23 75.10, -57.99 53.26 05/29/2024 15:47:25 75.09, -57.94 53.24 1.89 58
131 05/29/2024 16:37:44 -75.10, 109.67 126.75 05/29/2024 16:36:48 -75.07, 109.67 126.78 3.37 56
132 05/29/2024 17:27:06 75.10, -82.66 53.24 05/29/2024 17:26:06 75.10, -82.59 53.25 2.19 60
133 05/29/2024 18:16:27 -75.10, 85.00 126.76 05/29/2024 18:15:29 -75.09, 85.03 126.78 1.82 58
134 05/29/2024 19:05:50 75.10,-107.34 53.23 05/29/2024 19:04:48 75.11,-107.23 53.25 3.64 62
135 05/29/2024 19:55:11 -75.10, 60.32 126.78 05/29/2024 19:54:11 -75.10, 60.38 126.78 1.63 60
136 05/29/2024 20:44:34 75.09,-132.01 53.22 05/29/2024 20:43:31 75.08,-132.01 53.20 1.90 63
137 05/29/2024 21:33:55 -75.09, 35.65 126.79 05/29/2024 21:32:53 -75.11, 35.74 126.77 3.05 62
138 05/29/2024 22:23:18 75.09,-156.68 53.20 05/29/2024 22:22:13 75.09,-156.65 53.20 0.92 65
139 05/29/2024 23:12:39 -75.09, 10.98 126.80 05/29/2024 23:11:36 -75.07, 10.96 126.82 2.17 63
140 05/30/2024 00:02:02 75.09, 178.64 53.19 05/30/2024 00:00:55 75.10, 178.70 53.20 2.28 67
141 05/30/2024 00:51:23 -75.09, -13.70 126.82 05/30/2024 00:50:18 -75.08, -13.69 126.82 0.58 65
142 05/30/2024 01:40:46 75.08, 153.97 53.18 05/30/2024 01:39:38 75.06, 153.92 53.16 2.79 68
143 05/30/2024 02:30:07 -75.09, -38.37 126.83 05/30/2024 02:29:00 -75.10, -38.33 126.82 1.77 67
144 05/30/2024 03:19:30 75.08, 129.29 53.17 05/30/2024 03:18:20 75.07, 129.28 53.16 0.94 70
145 05/30/2024 04:08:51 -75.08, -63.05 126.84 05/30/2024 04:07:43 -75.06, -63.11 126.87 3.16 68
146 05/30/2024 04:58:14 75.08, 104.62 53.15 05/30/2024 04:57:02 75.09, 104.63 53.16 0.93 72
147 05/30/2024 05:47:35 -75.08, -87.72 126.86 05/30/2024 05:46:25 -75.07, -87.75 126.86 1.31 70
148 05/30/2024 06:36:57 75.03, 80.08 53.09 05/30/2024 06:35:45 75.05, 79.86 53.11 6.73 72
149 05/30/2024 07:26:19 -75.08,-112.40 126.87 05/30/2024 07:25:07 -75.08,-112.40 126.86 0.64 72
150 05/30/2024 08:15:40 74.97, 55.54 53.03 05/30/2024 08:14:29 74.96, 54.95 53.01 16.98 71
151 05/30/2024 09:05:03 -75.07,-137.07 126.88 05/30/2024 09:03:50 -75.04,-137.17 126.91 4.40 73
152 05/30/2024 09:54:23 74.92, 30.99 52.96 05/30/2024 09:53:12 74.92, 30.17 52.96 23.70 71
153 05/30/2024 10:43:45 -74.97,-161.48 126.99 05/30/2024 10:42:33 -75.01,-161.95 126.96 14.01 72
154 05/30/2024 11:33:05 74.82, 6.58 52.85 05/30/2024 11:31:56 74.83, 5.27 52.86 38.18 69
155 05/30/2024 12:22:28 -74.92, 173.98 127.06 05/30/2024 12:21:17 -74.92, 173.15 127.06 24.01 71
156 05/30/2024 13:11:48 74.76, -17.96 52.79 05/30/2024 13:10:39 74.79, -19.50 52.82 45.05 69
157 05/30/2024 14:01:11 -74.87, 149.43 127.12 05/30/2024 14:00:01 -74.83, 148.25 127.16 34.80 70
158 05/30/2024 14:50:31 74.71, -42.51 52.72 05/30/2024 14:49:23 74.70, -44.40 52.72 55.56 68
159 05/30/2024 15:39:53 -74.76, 125.02 127.23 05/30/2024 15:38:44 -74.79, 123.47 127.20 45.24 69
160 05/30/2024 16:29:13 74.61, -66.93 52.61 05/30/2024 16:28:07 74.61, -69.30 52.62 70.01 66
161 05/30/2024 17:18:36 -74.71, 100.47 127.29 05/30/2024 17:17:28 -74.70, 98.58 127.30 55.69 68
162 05/30/2024 18:07:56 74.55, -91.48 52.55 05/30/2024 18:06:50 74.57, -94.07 52.57 76.82 66
163 05/30/2024 18:57:19 -74.66, 75.93 127.36 05/30/2024 18:56:11 -74.66, 73.80 127.35 62.44 68
164 05/30/2024 19:46:39 74.50,-116.03 52.49 05/30/2024 19:45:34 74.48,-118.96 52.47 87.42 65
165 05/30/2024 20:36:01 -74.55, 51.50 127.47 05/30/2024 20:34:55 -74.57, 48.91 127.45 76.84 66
166 05/30/2024 22:14:44 -74.50, 26.95 127.53 05/30/2024 22:13:39 -74.48, 24.02 127.55 87.38 65
167 05/30/2024 23:53:27 -74.45, 2.40 127.59 05/30/2024 23:52:22 -74.44, -0.75 127.60 94.10 65



Historial Predications of SNOs between AQUA and TERRA
